KZR222 EDDF-UAAA

Flight info

Callsign KZR222
Flight time N/A
Altitude 35000
Route SULUS5F SULUS Z650 VEMUT DCT PEPIK DCT ERGOM DCT TEGRI DCT EKSUN DCT RIVOS DCT DINRO N743 UDROS UM859 KARDE UN644 ROLIN DCT LAGAS M747 LUSAL N199 RASAM L88 METKA B476 TIMGA A480 OTBOR/K0846F350 N147 PIDWO Y720 LAPZE Z640 GILAT N102 SMK N143 TAR Z817 AGLEK Z370 EKLAT EKLAT2D
Aircraft A21N/M-SDE2E3FGHIRWXY/LB1

Departure

Time 2026-05-04 04:28
Airport Frankfurt Main Airport (EDDF)

Arrival

Time N/A
Airport Almaty International Airport (UAAA)
Time Latitude Longitude Altitude Speed Heading
2026-05-04 04:10 50.05060 8.58764 357 ft 0 kts 315°
2026-05-04 04:14 50.05060 8.58765 358 ft 0 kts 315°
2026-05-04 04:15 50.05060 8.58764 357 ft 0 kts 315°
2026-05-04 04:23 50.05052 8.58777 366 ft 2 kts 315°
2026-05-04 04:23 50.05038 8.58799 363 ft 8 kts 315°
2026-05-04 04:24 50.05021 8.58824 363 ft 4 kts 315°
2026-05-04 04:24 50.05011 8.58861 363 ft 4 kts 250°
2026-05-04 04:24 50.05021 8.58901 361 ft 4 kts 245°
2026-05-04 04:24 50.05032 8.58939 361 ft 0 kts 245°
2026-05-04 04:25 50.05027 8.58925 361 ft 10 kts 244°
2026-05-04 04:25 50.05008 8.58867 363 ft 6 kts 245°
2026-05-04 04:25 50.04992 8.58794 355 ft 9 kts 252°
2026-05-04 04:26 50.04965 8.58694 354 ft 9 kts 230°
2026-05-04 04:26 50.04907 8.58672 349 ft 8 kts 163°
2026-05-04 04:26 50.04840 8.58710 337 ft 13 kts 159°
2026-05-04 04:26 50.04739 8.58771 329 ft 18 kts 159°
2026-05-04 04:27 50.04656 8.58765 326 ft 11 kts 193°
2026-05-04 04:27 50.04582 8.58711 327 ft 12 kts 218°
2026-05-04 04:27 50.04524 8.58636 326 ft 9 kts 220°
2026-05-04 04:27 50.04489 8.58579 330 ft 6 kts 238°
2026-05-04 04:28 50.04423 8.58314 332 ft 61 kts 250°
2026-05-04 04:28 50.04184 8.57321 352 ft 136 kts 250°
2026-05-04 04:28 50.03782 8.55660 623 ft 176 kts 248°
2026-05-04 04:28 50.03339 8.53818 1303 ft 180 kts 249°
2026-05-04 04:29 50.02912 8.52087 2395 ft 171 kts 244°
2026-05-04 04:29 50.02129 8.50521 2882 ft 200 kts 217°
2026-05-04 04:29 50.00826 8.49503 3460 ft 221 kts 200°
2026-05-04 04:29 49.99253 8.49150 4387 ft 231 kts 175°
2026-05-04 04:30 49.97752 8.50090 5355 ft 243 kts 142°
2026-05-04 04:30 49.96699 8.52165 6351 ft 251 kts 124°
2026-05-04 04:30 49.95833 8.54572 7205 ft 263 kts 122°
2026-05-04 04:30 49.94933 8.57176 7846 ft 282 kts 121°
2026-05-04 04:31 49.94166 8.60051 8624 ft 295 kts 105°
2026-05-04 04:31 49.93893 8.63260 9449 ft 302 kts 96°
2026-05-04 04:31 49.93772 8.66521 10216 ft 308 kts 95°
2026-05-04 04:31 49.93744 8.69966 10683 ft 328 kts 89°
2026-05-04 04:32 49.93901 8.73614 10980 ft 351 kts 86°
2026-05-04 04:32 49.94178 8.77517 11292 ft 372 kts 84°
2026-05-04 04:32 49.94518 8.81595 11615 ft 391 kts 84°
2026-05-04 04:32 49.94880 8.85800 12184 ft 401 kts 84°
2026-05-04 04:33 49.95245 8.90126 12924 ft 405 kts 84°
2026-05-04 04:33 49.95597 8.94486 13671 ft 409 kts 84°
2026-05-04 04:33 49.95943 8.98934 14316 ft 413 kts 85°
2026-05-04 04:33 49.96272 9.03303 14896 ft 418 kts 85°
2026-05-04 04:34 49.96604 9.07802 15503 ft 422 kts 85°
2026-05-04 04:34 49.96938 9.12386 16120 ft 426 kts 85°
2026-05-04 04:34 49.97270 9.16968 16775 ft 428 kts 85°
2026-05-04 04:34 49.97601 9.21559 17400 ft 431 kts 85°
2026-05-04 04:35 49.97932 9.26163 17973 ft 434 kts 85°
2026-05-04 04:35 49.98268 9.30855 18521 ft 438 kts 85°
2026-05-04 04:35 49.98604 9.35578 19013 ft 442 kts 85°
2026-05-04 04:35 49.98942 9.40342 19493 ft 445 kts 85°
2026-05-04 04:36 49.99276 9.45083 19973 ft 449 kts 85°
2026-05-04 04:36 49.99617 9.49955 20449 ft 452 kts 85°
2026-05-04 04:36 49.99954 9.54809 20916 ft 455 kts 86°
2026-05-04 04:36 50.00295 9.59736 21378 ft 458 kts 86°
2026-05-04 04:37 50.01314 9.74686 22748 ft 468 kts 85°
2026-05-04 04:37 50.01651 9.79693 23148 ft 472 kts 85°
2026-05-04 04:38 50.01994 9.84817 23610 ft 475 kts 85°
2026-05-04 04:38 50.02334 9.89931 24008 ft 478 kts 86°
2026-05-04 04:38 50.02677 9.95125 24396 ft 481 kts 86°
2026-05-04 04:38 50.03017 10.00316 24768 ft 484 kts 86°
2026-05-04 04:39 50.03357 10.05539 25140 ft 487 kts 86°
2026-05-04 04:39 50.03694 10.10759 25498 ft 489 kts 86°
2026-05-04 04:39 50.04036 10.16077 25877 ft 491 kts 86°
2026-05-04 04:39 50.04370 10.21319 26359 ft 490 kts 86°
2026-05-04 04:40 50.04701 10.26568 26841 ft 489 kts 86°
2026-05-04 04:40 50.05030 10.31815 27308 ft 488 kts 86°
2026-05-04 04:40 50.05362 10.37135 27759 ft 488 kts 86°
2026-05-04 04:40 50.05684 10.42354 28194 ft 487 kts 86°
2026-05-04 04:41 50.06005 10.47576 28629 ft 487 kts 86°
2026-05-04 04:41 50.06323 10.52807 29043 ft 486 kts 86°
2026-05-04 04:41 50.06643 10.58097 29431 ft 486 kts 85°
2026-05-04 04:41 50.06955 10.63302 29783 ft 487 kts 85°
2026-05-04 04:42 50.07193 10.68583 30127 ft 487 kts 91°
2026-05-04 04:42 50.06958 10.73817 30446 ft 484 kts 101°
2026-05-04 04:42 50.06203 10.78932 30788 ft 481 kts 107°
2026-05-04 04:42 50.05280 10.83887 31143 ft 479 kts 109°
2026-05-04 04:43 50.04267 10.88829 31492 ft 478 kts 110°
2026-05-04 04:43 50.03220 10.93711 31807 ft 477 kts 111°
2026-05-04 04:43 50.02153 10.98611 32135 ft 476 kts 111°
2026-05-04 04:43 50.01096 11.03461 32443 ft 475 kts 111°
2026-05-04 04:44 50.00039 11.08329 32750 ft 474 kts 111°
2026-05-04 04:44 49.98990 11.13191 32994 ft 475 kts 111°
2026-05-04 04:44 49.96902 11.22909 33037 ft 474 kts 111°
2026-05-04 04:45 49.94837 11.32621 33036 ft 474 kts 110°
2026-05-04 04:47 49.88359 11.66984 33025 ft 475 kts 102°
2026-05-04 04:47 49.87321 11.77062 33019 ft 476 kts 100°
2026-05-04 04:48 49.86404 11.87304 33003 ft 477 kts 100°
2026-05-04 04:49 49.84155 12.12669 33010 ft 477 kts 100°
2026-05-04 04:49 49.83226 12.22854 33007 ft 477 kts 100°
2026-05-04 04:50 49.82292 12.33017 32996 ft 477 kts 100°
2026-05-04 04:50 49.81346 12.43169 33007 ft 474 kts 102°
2026-05-04 04:51 49.79711 12.53028 33008 ft 472 kts 109°
2026-05-04 04:51 49.77813 12.62712 33006 ft 471 kts 110°
2026-05-04 04:52 49.75847 12.72408 33006 ft 471 kts 110°
2026-05-04 04:52 49.73883 12.82074 32994 ft 469 kts 110°
2026-05-04 04:53 49.71938 12.91654 33003 ft 469 kts 110°
2026-05-04 04:53 49.69977 13.01291 33000 ft 469 kts 110°
2026-05-04 04:54 49.68015 13.10888 32998 ft 469 kts 110°
2026-05-04 04:54 49.66043 13.20481 33018 ft 469 kts 110°
2026-05-04 04:55 49.64060 13.30086 33019 ft 470 kts 110°
2026-05-04 04:55 49.62071 13.39670 33015 ft 470 kts 110°
2026-05-04 04:56 49.60072 13.49258 33015 ft 470 kts 110°
2026-05-04 04:56 49.58074 13.58795 32990 ft 470 kts 110°
2026-05-04 04:57 49.56053 13.68397 33002 ft 469 kts 110°
2026-05-04 04:57 49.54046 13.77890 32996 ft 468 kts 110°
2026-05-04 04:58 49.52021 13.87418 32999 ft 468 kts 110°
2026-05-04 04:58 49.49984 13.96958 32995 ft 468 kts 110°
2026-05-04 04:59 49.47943 14.06476 33010 ft 468 kts 110°
2026-05-04 04:59 49.45897 14.15972 32991 ft 468 kts 110°
2026-05-04 05:00 49.43839 14.25479 33012 ft 468 kts 110°
2026-05-04 05:01 49.40749 14.39669 32993 ft 468 kts 110°
2026-05-04 05:01 49.38768 14.48715 33007 ft 467 kts 110°
2026-05-04 05:02 49.36756 14.57867 32988 ft 467 kts 111°
2026-05-04 05:02 49.35545 14.64822 32714 ft 465 kts 96°